{"data":{"norad_id":47532,"epoch":"2026-05-25T05:26:41.618976Z","epoch_age_seconds":62244,"freshness":"FRESH","line1":"1 47532U 21007A   26145.22687059 -.00000012  00000+0  12105-3 0  9993","line2":"2 47532  63.4027 202.1249 0173984   0.4374 359.6774 13.45446611261145","mean_motion":13.45446611,"eccentricity":0.0173984,"inclination_deg":63.4027,"raan_deg":202.1249,"arg_perigee_deg":0.4374,"mean_anomaly_deg":359.6774,"bstar":0.00012105,"rev_number":26114,"period_min":107.02765819371,"perigee_km":959.14136024588,"apogee_km":1218.9758726727,"semimajor_km":7467.1956164593,"source":"CELESTRAK","updated_at":"2026-05-25T13:37:56.475117Z"}}